Location: Melbourne
(37.8666°S, 145.1333°E)
Time: 19:27:12
(UTC+11:00)

Iridium 21 - Visible Passes

Search period start: 01 March 2015 00:00
Search period end: 11 March 2015 00:00
Orbit: 776 x 779 km, 86.4° (Epoch: 28 February)

Date Brightness Start Highest point End Pass type
(mag) Time Alt. Az. Time Alt. Az. Time Alt. Az.
01 Mar 6.4 04:20:30 10° S 04:25:35 47° E 04:27:22 34° NE visible
01 Mar 7.0 06:02:22 10° SW 06:05:59 18° W 06:07:48 15° WNW visible
02 Mar 7.4 03:47:33 10° SSE 03:51:51 25° ESE 03:53:10 23° ENE visible
02 Mar 6.2 05:27:55 10° SSW 05:32:40 33° W 05:33:35 31° WNW visible
03 Mar 8.1 03:15:28 10° SE 03:17:55 14° ESE 03:19:01 13° E visible
03 Mar 5.4 04:54:01 10° S 04:59:15 63° W 04:59:26 63° W visible
04 Mar 5.8 04:20:28 10° S 04:25:21 66° SE 04:25:21 66° SE visible
04 Mar 7.4 06:03:43 10° SW 06:05:46 12° WSW 06:05:46 12° WSW visible
05 Mar 7.0 03:47:15 10° SSE 03:51:18 34° ESE 03:51:18 34° ESE visible
05 Mar 6.9 05:28:29 10° SSW 05:31:43 22° WSW 05:31:43 22° WSW visible
06 Mar 7.9 03:14:33 10° SSE 03:17:18 19° ESE 03:17:18 19° ESE visible
06 Mar 6.5 04:54:18 10° SSW 04:57:44 34° SW 04:57:44 34° SW visible
07 Mar 6.6 04:20:33 10° S 04:23:46 38° S 04:23:46 38° S visible
08 Mar 7.2 03:47:07 10° S 03:49:51 29° SSE 03:49:51 29° SSE visible
08 Mar 7.6 05:29:22 10° SW 05:30:18 13° SW 05:30:18 13° SW visible
09 Mar 7.9 03:14:04 10° SSE 03:15:58 19° SE 03:15:58 19° SE visible
09 Mar 7.4 04:54:44 10° SSW 04:56:24 18° SW 04:56:24 18° SW visible
10 Mar 8.5 02:41:43 10° SE 02:42:06 11° SE 02:42:06 11° SE visible
10 Mar 7.4 04:20:45 10° SSW 04:22:32 21° SSW 04:22:32 21° SSW visible
